STARLINK-33950, 63701

Orbit data source: Space-Track

STARLINK-33950, 63701 is a payload satellite owned by SpaceX/Seattle (US) in LEO that was launched on Mon, 28 Apr 2025 UTC via an FALCON 9 launch vehicle from the Air Force Western Test Range (AFWTR). Payload-class satellites include a variety of spacecraft equipped with specific instruments for various scientific and technological missions. These include communications satellites like Starlink; space stations such as the ISS; scientific satellites like the Hubble; Earth observation satellites from companies like Planet Labs, Umbra, and HawkEye 360; GPS; miniature CubeSats for education and research; and military/defense satellites.

Loading next visibility...
Identifier
63701, 2025-087E
Orbit
LEO
Country
Flag of USUS
Related business
Manufacturer
SpaceX/Seattle
Mission
Operational Commercial Communications
Bus & Motor
STARLINK V2MO, Unknown motor
Mass
575 kg wet, ~530 kg dry
Launch date (UTC)
2025-04-28 (8 months ago)
Launch vehicle
FALCON 9
Launch site
Air Force Western Test Range (AFWTR)
Object type
Payload
Rocket body
Debris
Shape & HBR
Box + 2 Pan, 17.7 m
Radar Cross Section
36.964 m², Large (>1 m²)

Expand to show TLE details & history
Last TLE update: 21 hours ago

TLE from 21 hours ago
0 STARLINK-33950
1 63701U 25087E   25348.75463103  .00036623  00000-0  12430-2 0  9992
2 63701  53.1588 254.2208 0001322  75.2652 284.8495 15.30188791 36199
Epoch: 2025-12-14T18:06Z
TLE epoch observation values (Epoch: 2025-12-14T18:06:40.120Z)
Latitude
-0.00006°
Longitude
-101.10942°
Altitude
475.916 km
Speed
7.629 km/s
True Right ascension
16h 56m 52s
True Declination
0° 00' 00"
Sunlit
Object was in daylight at epoch
Visualization orbit readout
Latitude
Unknown
Longitude
Unknown
Altitude
Unknown
Speed
Unknown
Apparent Right ascension
Unknown
Apparent Declination
Unknown
Sunlit
N/A
Visualization observer readout
Local Sidereal Time
13:24:50
Azimuth
Unknown
Elevation
Unknown
Doppler factor
Unknown
Orbital elements
Apogee altitude
476.411 km
Perigee altitude
474.599 km
Semi-major axis
6,853.642 km
Eccentricity
0.00013
Inclination
53.1588°
RAAN
254.2208°
Arg. of periapsis
75.2652°
True anomaly
284.83486°
Mean anomaly
284.8495°
Eccentric anomaly
284.84218°
Mean motion
3.82526 °/min
Orbital period
94.11 mins
BSTAR
0.001243
Loading maneuver chart data...
Computing Atmospheric mass density...
Loading historical data...
Loading historical data...
Loading historical data...
Loading historical data...
Loading historical data...
Loading historical data...
Loading historical data...

Documentation

Showing up to 5 results
|